Location: Recife
(8.0585°S, 34.8848°W)
Time: 11:21:15
(UTC-03:00)

S-56A Canister/Altair - Pass Details

Date: 15 April 2026
Orbit: 633 x 2484 km, 38.9° (Epoch: 20 May)

Event Time Altitude Azimuth Distance (km) Brightness Sun altitude
Rises 23:45:18 0° 222° (SW) 3,133 - -83.3°
Reaches altitude 10° 23:47:26 10° 217° (SW) 2,331 - -82.8°
Maximum altitude 23:52:45 58° 138° (SE) 1,122 - -81.5°
Drops below altitude 10° 00:00:29 10° 60° (ENE) 3,354 - -79.7°
Sets 00:04:07 0° 57° (ENE) 4,638 - -78.8°
